Showing default

SKYBEE-A02, 64544

Orbit data source: Space-Track

SKYBEE-A02, 64544 is a payload satellite owned by ConstellR (DE) in SSO that was launched on Mon, 23 Jun 2025 UTC via an FALCON 9 launch vehicle from the Air Force Western Test Range (AFWTR). Payload-class satellites include a variety of spacecraft equipped with specific instruments for various scientific and technological missions. These include communications satellites like Starlink; space stations such as the ISS; scientific satellites like the Hubble; Earth observation satellites from companies like Planet Labs, Umbra, and HawkEye 360; GPS; miniature CubeSats for education and research; and military/defense satellites.

Loading next visibility...
Identifier
64544, 2025-135S
Orbit
SSO
Country
Flag of DEDE / GER
Related business
Manufacturer
NanoAvionics
Mission
Operational Commercial Imaging
Bus & Motor
CUBESAT 16U MP16, Unknown motor
Mass
110 kg wet, 110 kg dry
Launch date (UTC)
2025-06-23 (1 year ago)
Launch vehicle
FALCON 9
Launch site
Air Force Western Test Range (AFWTR)
Object type
Payload
Rocket body
Debris
Shape & HBR
Box + 2 Pan, 1.3 m
Radar Cross Section
0.146 m², Medium (>0.1 m² and < 1m²)

Expand to show TLE details & history
Last TLE update: 10 hours ago

TLE from 10 hours ago
0 SKYBEE-A02
1 64544U 25135S   26171.42673274  .00002057  00000-0  98388-4 0  9995
2 64544  97.4738 286.2295 0003131 118.7618 241.3932 15.20112779 55321
Epoch: 2026-06-20T10:14Z
TLE epoch observation values (Epoch: 2026-06-20T10:14:29.708Z)
Latitude
-0.00002°
Longitude
-136.0358°
Altitude
509.621 km
Speed
7.609 km/s
True Right ascension
19h 04m 55s
True Declination
0° 00' 00"
Sunlit
Object was in full shadow at epoch
Visualization orbit readout
Latitude
Unknown
Longitude
Unknown
Altitude
Unknown
Speed
Unknown
Apparent Right ascension
Unknown
Apparent Declination
Unknown
Sunlit
N/A
Visualization observer readout
Local Sidereal Time
07:20:12
Azimuth
Unknown
Elevation
Unknown
Doppler factor
Unknown
Orbital elements
Apogee altitude
504.623 km
Perigee altitude
500.314 km
Semi-major axis
6,880.606 km
Eccentricity
0.00031
Inclination
97.4738°
RAAN
286.2295°
Arg. of periapsis
118.7618°
True anomaly
241.36171°
Mean anomaly
241.3932°
Eccentric anomaly
241.37745°
Mean motion
3.8028 °/min
Orbital period
94.67 mins
BSTAR
0.000098388
Loading maneuver chart data...
Computing Atmospheric mass density...
Loading historical data...
Loading historical data...
Loading historical data...
Loading historical data...
Loading historical data...
Loading historical data...
Loading historical data...

Documentation

Showing up to 5 results
|